Weather observations for the past three days for
New Bedford, New Bedford Regional Airport
Metric (Imperial)
Date Time (edt) Wind (kph) Vis. (km) Weather Sky Cond. Temperature (ºC) Relative Humidity Wind Chill (°C) Heat Index (°C) Pressure Precipitation (cm)
Air Dwpt 6 hour altimeter (cm) sea level (mb) 1 hr 3 hr 6 hr
Max. Min.
25 00:53 Calm 16.09 Fair CLR 14.4 13.3 93% 75.72 1009.3
24 23:53 Calm 16.09 Fair CLR 16.1 14.4 90% 75.69 1009.2
24 22:53 Calm 16.09 Fair CLR 17.8 14.4 81% 75.67 1008.6
24 21:53 W 9 16.09 Fair CLR 19.4 14.4 73% 75.64 1008.4
24 20:53 SW 13 16.09 Fair CLR 20.6 15.6 73% 75.59 1007.7
24 19:53 SW 13 16.09 Fair CLR 22.2 13.9 27.2 22.2 59% 75.54 1007.1
24 18:53 SW 20 G 33 16.09 Fair CLR 23.3 15 60% 75.54 1006.9
24 17:53 SW 24 G 46 16.09 Fair CLR 25 13.3 48% 26 75.49 1006.5
24 16:53 SW 17 16.09 Fair CLR 25.6 16.1 56% 26 75.49 1006.5
24 15:53 SW 26 16.09 Fair CLR 25 14.4 52% 26 75.51 1006.8
24 14:53 S 33 G 43 16.09 Fair and Breezy CLR 26.7 11.7 39% 27 75.57 1007.4
24 13:53 S 30 G 41 16.09 Fair CLR 26.7 12.2 27.8 21.7 41% 27 75.62 1008.0
24 12:53 S 24 G 37 16.09 Fair CLR 27.2 12.2 39% 27 75.64 1008.2
24 11:53 W 17 G 28 16.09 Fair CLR 27.2 10.6 35% 27 75.67 1008.7
24 10:53 SW 15 16.09 Fair CLR 26.1 12.2 42% 26 75.72 1009.5
24 09:53 W 13 16.09 Fair CLR 25.6 11.7 42% 26 75.77 1010.1
24 08:53 W 13 16.09 Fair CLR 24.4 15 56% 26 75.79 1010.5
24 07:53 W 7 16.09 Fair CLR 21.7 16.7 21.7 12.8 73% 75.79 1010.6
24 06:53 Calm 11.27 Fair CLR 16.7 16.7 100% 75.79 1010.3
24 05:53 Calm 0.40 Fog VV002 13.3 12.8 97% 75.77 1010.1
24 04:53 Calm 0.40 Fog VV002 13.3 13.3 100% 75.74 1009.8
24 03:53 Calm 0.40 Fog VV002 14.4 14.4 100% 75.74 1009.9
24 02:53 Calm 1.21 Fog/Mist BKN065 16.1 16.1 100% 75.77 1010.0
24 01:53 Calm 9.66 Fog/Mist SCT050 16.7 16.1 20 16.7 96% 75.77 1010.1
24 00:53 Calm 16.09 Fair CLR 18.9 18.3 96% 75.77 1010.0
23 23:53 W 11 16.09 Fair CLR 19.4 18.3 93% 75.77 1010.0
23 22:53 W 9 16.09 Fair CLR 19.4 17.8 91% 75.77 1010.0
23 21:53 SW 7 16.09 Fair CLR 18.9 17.8 93% 75.74 1009.7
23 20:53 SW 11 16.09 Fair CLR 18.9 17.8 93% 75.69 1009.1
23 19:53 SW 13 16.09 Fair CLR 19.4 17.8 23.3 18.3 91% 75.69 1009.0 0.05
23 18:53 S 13 16.09 Fair CLR 21.1 19.4 90% 75.69 1009.0
23 17:53 SW 13 16.09 Fair CLR 22.8 19.4 81% 75.69 1008.9
23 16:53 W 11 16.09 Mostly Cloudy BKN013 22.8 20.6 87% 75.72 1009.3 0.05
23 15:53 SW 11 16.09 Partly Cloudy SCT006 21.1 19.4 90% 75.69 1009.1
23 14:53 S 13 14.48 Overcast OVC004 18.3 18.3 100% 75.77 1010.0 0.05
23 13:53 Calm 9.66 Light Rain Fog/Mist FEW080 OVC110 18.9 18.3 19.4 16.1 96% 75.79 1010.6 0.33 3.84
23 12:53 Calm 12.87 Light Rain SCT019 BKN039 OVC100 16.1 16.1 100% 75.9 1011.7 0.58
23 11:53 SW 11 14.48 Thunderstorm in Vicinity Light Rain FEW008 BKN100 OVC120 17.2 16.7 97% 75.84 1011.2 2.41
23 10:53 SE 11 14.48 Thunderstorm in Vicinity Light Rain SCT055 BKN070 OVC110 17.2 15.6 90% 75.79 1010.6 0.03 0.51
23 09:53 SE 15 16.09 Mostly Cloudy BKN060 18.9 16.7 87% 75.79 1010.5 0.13
23 08:53 E 11 2.01 Thunderstorm Heavy Rain Fog/Mist FEW029 BKN037 OVC050 17.8 15.6 87% 75.84 1011.1 0.36
23 07:53 SW 9 16.09 Partly Cloudy SCT080 17.8 15 17.8 15 84% 75.84 1011.3
23 06:53 SW 13 16.09 Mostly Cloudy BKN090 17.2 15 87% 75.84 1011.0
23 05:53 SW 7 16.09 Fair CLR 15.6 14.4 93% 75.84 1011.2
23 04:53 S 7 16.09 Fair CLR 15 14.4 96% 75.84 1011.1
23 03:53 SW 11 16.09 Fair CLR 15.6 14.4 93% 75.87 1011.5
23 02:53 SW 9 16.09 Fair CLR 15.6 14.4 93% 75.87 1011.6
23 01:53 SW 13 16.09 Fair CLR 15.6 14.4 18.3 15 93% 75.87 1011.6
23 00:53 SW 9 16.09 Fair CLR 15.6 14.4 93% 75.92 1012.0
22 23:53 SW 11 16.09 Fair CLR 15.6 14.4 93% 75.92 1012.1
22 22:53 SW 13 16.09 Fair CLR 16.1 15 93% 75.95 1012.4
22 21:53 SW 17 16.09 Fair CLR 16.1 15 93% 75.97 1012.8
22 20:53 SW 19 16.09 Fair CLR 16.7 13.9 84% 75.95 1012.5
22 19:53 SW 17 16.09 Fair CLR 18.3 12.8 26.7 18.3 70% 75.95 1012.3
22 18:53 SW 22 G 35 16.09 Fair CLR 21.1 12.8 59% 75.97 1012.6
22 17:53 SW 28 G 44 16.09 Fair CLR 22.2 12.8 55% 75.95 1012.4
22 16:53 SW 30 G 43 16.09 Fair CLR 23.9 13.9 54% 25 75.95 1012.4
22 15:53 SW 33 G 54 16.09 Fair and Breezy CLR 24.4 15 56% 26 75.97 1012.7
22 14:53 S 28 16.09 Fair CLR 25.6 16.1 56% 26 75.97 1012.8
22 13:53 S 24 G 39 16.09 Fair CLR 26.7 16.7 28.3 18.9 54% 27 76 1013.0
22 12:53 S 24 G 39 16.09 Fair CLR 27.2 16.7 53% 28 76.02 1013.5
22 11:53 SW 26 G 43 16.09 Fair CLR 27.8 16.1 49% 28 76.05 1013.9
22 10:53 SW 20 G 33 16.09 Fair CLR 27.2 15.6 49% 28 76.1 1014.4
22 09:53 SW 13 16.09 Fair CLR 25.6 17.2 60% 27 76.07 1014.3
22 08:53 SW 9 16.09 Fair CLR 22.8 16.7 69% 76.12 1015.0
22 07:53 SW 7 16.09 Fair CLR 18.9 15.6 18.9 12.8 81% 76.17 1015.3
22 06:53 W 7 16.09 Fair CLR 15 13.3 90% 76.17 1015.5
22 05:53 SW 6 16.09 Fair CLR 13.3 12.8 97% 76.1 1014.6
22 04:53 SW 7 16.09 Fair CLR 13.3 12.2 93% 76.07 1014.1
22 03:53 SW 7 16.09 Fair CLR 13.3 12.2 93% 76.05 1013.8
22 02:53 SW 11 16.09 Fair CLR 13.3 12.8 97% 76.07 1014.0
22 01:53 S 6 16.09 Fair CLR 13.3 12.2 15.6 12.8 93% 76.1 1014.5
Date Time (edt) Wind (kph) Vis. (km) Weather Sky Cond. Air Dwpt Max. Min. Relative Humidity Wind Chill (°C) Heat Index (°C) altimeter (cm) sea level (mb) 1 hr 3 hr 6 hr
6 hour
Temperature (ºC) Pressure Precipitation (cm)